DW7002 Weather Reports


time (UTC)temp
F
wind
direction
speed
knots
gust
knots
rain 1hr
in
rain 24hr
in
rain mn
in
humidity
%
barometer
mb
20260510192134 81 127 0.9 4.3 0.00 0.00 0.00 35 1016.6
20260510191126 82 288 0.0 3.5 0.00 0.00 0.00 34 1016.6
20260510190123 82 113 2.6 7.0 0.00 0.00 0.00 35 1016.5
20260510185134 82 272 0.9 4.3 0.00 0.00 0.00 35 1016.6
20260510184126 82 274 3.5 4.3 0.00 0.00 0.00 35 1016.6
20260510183124 82 311 1.7 3.5 0.00 0.00 0.00 35 1016.7
20260510182116 83 190 0.0 1.7 0.00 0.00 0.00 39 1016.8
20260510181129 82 194 0.9 3.5 0.00 0.00 0.00 37 1017.0
20260510180123 81 108 0.9 3.5 0.00 0.00 0.00 37 1017.0
20260510175117 81 265 0.9 4.3 0.00 0.00 0.00 38 1017.1
20260510174131 81 163 0.9 4.3 0.00 0.00 0.00 37 1017.1
20260510173124 80 253 1.7 4.3 0.00 0.00 0.00 38 1017.2
20260510172120 80 264 0.9 4.3 0.00 0.00 0.00 38 1017.2
20260510171134 81 207 0.9 4.3 0.00 0.00 0.00 38 1017.2
20260510170148 81 271 0.9 3.5 0.00 0.00 0.00 41 1017.4
20260510165117 81 206 0.9 3.5 0.00 0.00 0.00 39 1017.3
20260510164134 80 120 0.9 3.5 0.00 0.00 0.00 42 1017.4
20260510163126 79 171 2.6 4.3 0.00 0.00 0.00 40 1017.4
20260510162139 78 257 0.9 3.5 0.00 0.00 0.00 41 1017.5
20260510161152 79 163 0.9 1.7 0.00 0.00 0.00 42 1017.6
20260510160127 78 181 0.9 3.5 0.00 0.00 0.00 41 1017.7
20260510155118 78 27 0.9 2.6 0.00 0.00 0.00 48 1017.6
20260510154131 77 259 0.9 3.5 0.00 0.00 0.00 50 1017.6
20260510153125 77 253 0.0 3.5 0.00 0.00 0.00 49 1017.6
20260510152122 76 205 0.9 3.5 0.00 0.00 0.00 48 1017.6
20260510151155 76 194 0.9 0.9 0.00 0.00 0.00 57 1017.6
20260510150126 76 192 0.0 1.7 0.00 0.00 0.00 57 1017.7
20260510145119 75 228 0.0 1.7 0.00 0.00 0.00 57 1017.8
20260510144131 74 223 0.9 1.7 0.00 0.00 0.00 55 1017.7
20260510143124 73 223 0.0 1.7 0.00 0.00 0.00 61 1017.7
20260510142117 73 221 0.0 0.9 0.00 0.00 0.00 70 1017.6
20260510141153 71 221 0.0 1.7 0.00 0.00 0.00 71 1017.7
20260510140125 69 221 0.0 0.9 0.00 0.00 0.00 76 1017.6
20260510135134 68 258 0.0 0.9 0.00 0.00 0.00 80 1017.7
20260510134126 67 253 0.0 1.7 0.00 0.00 0.00 81 1017.6
20260510133122 65 252 0.0 0.9 0.00 0.00 0.00 84 1017.6
20260510132116 64 252 0.0 0.9 0.00 0.00 0.00 88 1017.6
20260510131128 64 264 0.0 1.7 0.00 0.00 0.00 91 1017.7
20260510130125 62 255 0.0 0.0 0.00 0.00 0.00 94 1017.6
20260510125115 62 255 0.0 0.0 0.00 0.00 0.00 94 1017.5
20260510124127 61 255 0.0 0.9 0.00 0.00 0.00 94 1017.4
20260510123120 61 255 0.0 1.7 0.00 0.00 0.00 96 1017.4
20260510122137 60 254 0.0 0.9 0.00 0.00 0.00 97 1017.2
20260510121128 58 253 0.0 0.0 0.00 0.00 0.00 96 1016.9
20260510120121 58 253 0.0 0.0 0.00 0.00 0.00 96 1016.7
20260510115131 57 253 0.0 0.0 0.00 0.00 0.00 95 1016.4
20260510114127 57 260 0.0 0.0 0.00 0.00 0.00 94 1016.4
20260510113118 56 260 0.0 0.0 0.00 0.00 0.00 94 1016.3
20260510112129 56 260 0.0 0.0 0.00 0.00 0.00 94 1016.1
20260510111141 56 260 0.0 0.0 0.00 0.00 0.00 93 1015.9
20260510110135 56 260 0.0 0.0 0.00 0.00 0.00 93 1015.6
20260510105125 57 260 0.0 0.0 0.00 0.00 0.00 93 1015.5
20260510104118 57 259 0.0 0.0 0.00 0.00 0.00 93 1015.5
20260510103116 57 262 0.0 0.0 0.00 0.00 0.00 94 1015.3
20260510102130 57 262 0.0 0.0 0.00 0.00 0.00 94 1015.1
20260510101122 57 262 0.0 0.0 0.00 0.00 0.00 94 1015.0
20260510100115 57 204 0.0 0.0 0.00 0.00 0.00 94 1014.8
20260510095130 57 204 0.0 0.0 0.00 0.00 0.00 93 1014.8
20260510094123 57 204 0.0 0.0 0.00 0.00 0.00 93 1014.7
20260510093115 57 204 0.0 0.0 0.00 0.00 0.00 94 1014.6
20260510092129 57 204 0.0 0.0 0.00 0.00 0.00 93 1014.6
20260510091125 57 204 0.0 0.0 0.00 0.00 0.00 93 1014.5
20260510090117 58 204 0.0 0.0 0.00 0.00 0.00 93 1014.4
20260510085148 58 204 0.0 0.0 0.00 0.00 0.00 93 1014.3
20260510084124 58 204 0.0 0.0 0.00 0.00 0.00 92 1014.3
20260510083117 59 204 0.0 0.0 0.00 0.00 0.00 93 1014.3
20260510082130 59 204 0.0 0.0 0.00 0.00 0.00 93 1014.2
20260510081124 59 204 0.0 0.0 0.00 0.00 0.00 93 1014.0
20260510080119 59 204 0.0 0.0 0.00 0.00 0.00 93 1014.0
20260510075130 59 204 0.0 0.0 0.00 0.00 0.00 93 1013.9
20260510074122 59 204 0.0 0.0 0.00 0.00 0.00 93 1013.9
20260510073120 60 204 0.0 0.0 0.00 0.00 0.00 93 1014.0
20260510072133 60 204 0.0 0.9 0.00 0.00 0.00 93 1014.0
20260510071125 60 204 0.0 1.7 0.00 0.00 0.00 93 1013.9
20260510070132 60 204 0.9 1.7 0.00 0.00 0.00 94 1013.8
20260510065127 59 202 0.0 0.9 0.00 0.00 0.00 93 1013.8
20260510064120 60 202 0.0 0.0 0.00 0.00 0.00 93 1013.8
20260510063154 60 202 0.0 0.0 0.00 0.00 0.00 93 1013.9
20260510062127 60 202 0.0 0.0 0.00 0.00 0.00 93 1013.9
20260510061124 60 202 0.0 0.0 0.00 0.00 0.00 92 1013.8
20260510060116 60 202 0.0 0.0 0.00 0.00 0.00 93 1013.8
20260510055148 60 202 0.0 0.0 0.00 0.00 0.00 92 1013.9
20260510054119 60 202 0.0 0.0 0.00 0.00 0.00 92 1013.9
20260510053115 60 202 0.0 0.0 0.00 0.00 0.00 93 1014.1
20260510052128 60 202 0.0 0.0 0.00 0.00 0.00 92 1014.1
20260510051120 60 202 0.0 0.0 0.00 0.00 0.00 92 1014.1
20260510050116 60 202 0.0 0.0 0.00 0.00 0.00 92 1014.3
20260510045126 61 202 0.0 0.9 0.00 0.00 0.00 93 1014.3
20260510044120 61 202 0.0 0.0 0.00 0.00 0.00 93 1014.4
20260510043132 60 202 0.0 0.0 0.00 0.00 0.00 92 1014.2
20260510042128 60 202 0.0 0.9 0.00 0.00 0.00 92 1014.4
20260510041140 61 202 0.9 1.7 0.00 0.00 0.00 92 1014.4
20260510040131 61 202 0.0 0.0 0.00 0.00 0.00 91 1014.3
20260510035120 61 202 0.0 1.7 0.00 0.00 0.00 91 1014.4
20260510034118 61 202 0.0 1.7 0.00 0.00 0.00 91 1014.3
20260510033150 61 202 0.0 0.0 0.00 0.00 0.00 91 1014.3
20260510032121 61 202 0.0 0.0 0.00 0.00 0.00 91 1014.3
20260510031115 62 202 0.0 0.0 0.00 0.00 0.00 90 1014.3
20260510030127 62 202 0.0 0.0 0.00 0.00 0.00 90 1014.2
20260510025117 62 202 0.0 0.0 0.00 0.00 0.00 90 1014.2
20260510024129 62 202 0.0 0.0 0.00 0.00 0.00 89 1014.2
20260510023126 62 202 0.0 0.0 0.00 0.00 0.00 89 1014.0
20260510022118 63 202 0.0 0.0 0.00 0.00 0.00 89 1013.9
20260510021151 63 202 0.0 0.0 0.00 0.00 0.00 89 1013.9
20260510020144 63 202 0.0 0.0 0.00 0.00 0.00 88 1013.9
20260510015117 63 202 0.0 0.0 0.00 0.00 0.00 88 1013.7
20260510014149 64 202 0.0 0.0 0.00 0.00 0.00 88 1013.7
20260510013121 64 202 0.0 0.0 0.00 0.00 0.00 87 1013.5
20260510012134 64 202 0.0 0.0 0.00 0.00 0.00 86 1013.3
20260510011130 65 202 0.0 0.0 0.00 0.00 0.00 85 1013.0
20260510010121 65 202 0.0 0.0 0.00 0.00 0.00 85 1012.9
20260510005152 66 202 0.0 0.0 0.00 0.00 0.00 84 1012.6
20260510004126 66 202 0.0 0.0 0.00 0.00 0.00 83 1012.4
20260510003121 67 202 0.0 0.0 0.00 0.00 0.00 82 1012.5
20260510002135 68 202 0.0 0.0 0.00 0.00 0.00 82 1012.4
20260510001126 68 202 0.0 0.9 0.00 0.00 0.00 80 1012.3
20260510000123 68 280 0.0 0.9 0.00 0.00 0.00 80 1012.2
20260509235134 69 284 0.0 1.7 0.00 0.00 0.00 79 1012.3
20260509234126 69 284 0.9 1.7 0.00 0.00 0.00 78 1012.3
20260509233120 70 284 0.9 1.7 0.00 0.00 0.00 78 1012.2
20260509232117 70 284 0.0 0.9 0.00 0.00 0.00 78 1011.8
20260509231130 70 11 0.0 1.7 0.00 0.00 0.00 77 1011.9
20260509230122 71 277 0.9 1.7 0.00 0.00 0.00 77 1011.9
20260509225117 71 290 0.0 3.5 0.00 0.00 0.00 77 1011.7
20260509224132 71 184 0.0 1.7 0.00 0.00 0.00 77 1011.6
20260509223124 72 157 0.9 2.6 0.00 0.00 0.00 75 1011.6
20260509222117 72 266 0.9 3.5 0.00 0.00 0.00 75 1011.6
20260509221135 72 340 0.9 3.5 0.00 0.00 0.00 75 1011.7
20260509220127 72 168 0.9 3.5 0.00 0.00 0.00 74 1011.7
20260509215137 72 254 0.9 4.3 0.00 0.00 0.00 74 1011.5
20260509214148 71 265 0.0 3.5 0.00 0.00 0.00 74 1011.6
20260509213125 71 161 0.9 4.3 0.00 0.00 0.00 75 1011.6
20260509212118 71 95 1.7 5.2 0.00 0.00 0.00 75 1011.6
20260509211131 71 300 1.7 4.3 0.00 0.00 0.00 75 1011.6
20260509210123 71 257 0.9 4.3 0.00 0.00 0.00 75 1011.5
20260509205117 71 250 0.9 4.3 0.00 0.00 0.00 74 1011.3
20260509204150 71 268 0.9 4.3 0.00 0.00 0.00 73 1011.4
20260509203141 71 278 0.9 5.2 0.00 0.00 0.00 74 1011.5
20260509202132 71 298 2.6 5.2 0.00 0.00 0.00 75 1011.5
20260509201128 70 249 0.9 3.5 0.00 0.00 0.00 76 1011.6
20260509200120 70 171 1.7 4.3 0.00 0.00 0.00 75 1011.7
20260509195150 70 128 0.9 5.2 0.00 0.00 0.00 76 1011.8
20260509194124 70 284 0.9 4.3 0.00 0.00 0.00 77 1012.0
20260509193121 69 274 2.6 4.3 0.00 0.00 0.00 78 1012.0